Find Taijing-1 03

NORAD ID: 58820 Int'l Des: NNA 2024-016 Owner: WEINA Country: CN operational
LEOCIRCULARRETROGRADESSO

Aktuelle Ansicht

3D-Globus wird geladen...

Über Taijing-1 03

Beschreibung wird geladen...

Nächste Überflüge

Passes for default location (London). Set your location on the main map for personalized predictions.

Höhenverlauf

Loading altitude history...

Zweizeiliger Elementsatz

1 58820U 24016A 26144.95197766 .00029423 00000-0 46605-3 0 9997
2 58820 97.4475 239.3366 0007934 134.9017 225.2882 15.53342925130463
Epoch: 24. Mai 2026 • Age: 8 hours

Aktueller Status

Höhe 416.1 km
Geschwindigkeit 7.67 km/s
Subsatellitenpunkt 80.99°N, 127.08°E
Startdatum 23. Jan. 2024
Alter 2.3 years
Typ other

Technische Details

Klassifizierung Payload
Masse 70.00 kg
Trockenmasse 70.00 kg
Gesamtmasse 70.00 kg
Länge 0.50 m
Durchmesser 0.20 m
Spannweite 0.50 m
Form Box + 2 pan
Hersteller WEINA
Bus-Typ MN30
Phasenstatus In Orbit
Besitzer/Staat WEINA/CN

Most Searched